This is the latest recevied weather packets stored in our database for station/object RA1AMO-10. If no packets are shown the sender has not sent any weather packets the latest 1 day(s).
| Time | Temp. | Humidity | Pressure | Rain* | Wind** | Luminosity | Snow |
|---|---|---|---|---|---|---|---|
| 1778076237 | 11.11° C | 31% | 1012.1 hPa | - | - | - | - |
| 1778075337 | 11.11° C | 34% | 1012.4 hPa | - | - | - | - |
| 1778074437 | 11.11° C | 33% | 1012.2 hPa | - | - | - | - |
| 1778071736 | 10.56° C | 30% | 1011.8 hPa | - | - | - | - |
| 1778070836 | 10.56° C | 28% | 1011.9 hPa | - | - | - | - |
| 1778069936 | 9.44° C | 28% | 1011.9 hPa | - | - | - | - |
| 1778065435 | 7.78° C | 44% | 1012.2 hPa | - | - | - | - |
| 1778064535 | 7.22° C | 42% | 1011.8 hPa | - | - | - | - |
| 1778060934 | 7.22° C | 51% | 1010.9 hPa | - | - | - | - |
| 1778060034 | 7.22° C | 58% | 1010.7 hPa | - | - | - | - |
| 1778059134 | 6.67° C | 57% | 1010.5 hPa | - | - | - | - |
| 1778055533 | 6.67° C | 55% | 1009.8 hPa | - | - | - | - |
| 1778054677 | 6.11° C | 62% | 1009.8 hPa | - | - | - | - |
| 1778054633 | 6.11° C | 62% | 1009.8 hPa | - | - | - | - |
| 1778053733 | 6.11° C | 64% | 1009.7 hPa | - | - | - | - |
| 1778051032 | 5.56° C | 65% | 1009.2 hPa | - | - | - | - |
| 1778050132 | 5.56° C | 67% | 1009 hPa | - | - | - | - |
| 1778049232 | 5.56° C | 67% | 1008.9 hPa | - | - | - | - |
| 1778048332 | 5.56° C | 66% | 1009 hPa | - | - | - | - |
| 1778045631 | 5° C | 71% | 1008.3 hPa | - | - | - | - |
| 1778044731 | 5° C | 71% | 1007.9 hPa | - | - | - | - |
| 1778043831 | 5° C | 69% | 1007.7 hPa | - | - | - | - |
| 1778042931 | 5° C | 68% | 1007.6 hPa | - | - | - | - |
| 1778040230 | 5.56° C | 70% | 1006.9 hPa | - | - | - | - |
| 1778039330 | 5.56° C | 71% | 1006.7 hPa | - | - | - | - |
* Rain since midnight (hover to see other rain measurements)
** Current wind speed in m/s (hover to see current wind gust speed)